Location: Central Falls
(41.8900°N, 71.3929°W)
Time: 12:18:57
(UTC+00:00)

A-11 Canister half - Pass Details

Date: 14 December 2023
Orbit: 1512 x 1687 km, 47.2° (Epoch: 20 February)

Event Time Altitude Azimuth Distance (km) Brightness Sun altitude
Rises 08:34:52 0° 297° (WNW) 4,810 - -38.2°
Reaches altitude 10° 08:37:58 10° 294° (WNW) 3,846 - -37.6°
Maximum altitude 08:47:38 63° 217° (SW) 1,813 - -35.8°
Exits shadow 08:48:17 62° 199° (SSW) 1,829 9.1 -35.7°
Drops below altitude 10° 08:57:34 10° 139° (SE) 3,937 11.6 -34.0°
Sets 09:00:47 0° 136° (SE) 4,930 12.2 -33.4°
